N1QWW New Bedford MA US current weather conditions

sailwx.info

Wind from 298 at 1 knots gusting 11

Air temperature 21.1° C
Dewpoint 16.5° C

Last reported at 2020-Oct-01 15:46 UTC.
Time now 2020-Oct-01 16:24 UTC

Location: N 41°41' W 070°56'.
View on Google Maps.

See reports from other nearby stations

  
Tides and Currents Weather Stations Pressure Air Temp Water Temp Dewpoint Dewpoint Depression Visibility Wind Speed Wind Dir Waves Ship Positions
date/time (UTC)wind fromknots sea level pressurealtimeterstation pressurevisibilityair tempwater tempwave heightnotes
2020-Oct-01 16:01 299 3 gusting 11 21.1
2020-Oct-01 15:46 298 1 gusting 11 21.1
2020-Oct-01 15:31 282 1 gusting 6 21.1
2020-Oct-01 15:19 242 1 gusting 6 21.7
2020-Oct-01 15:02 267 21.7
2020-Oct-01 14:46 273 1 gusting 6 22.2
2020-Oct-01 14:31 222 1 gusting 6 21.7
2020-Oct-01 14:15 286 0 gusting 6 21.7
2020-Oct-01 14:00 209 1 gusting 6 21.1
2020-Oct-01 13:45 259 1 gusting 4 21.1
2020-Oct-01 13:30 260 21.1
2020-Oct-01 13:15 264 20.6
2020-Oct-01 13:01 248 20.0
2020-Oct-01 12:45 265 19.4
2020-Oct-01 12:30 255 18.9
2020-Oct-01 12:15 222 0 gusting 3 17.8
2020-Oct-01 12:00 277 1 gusting 4 17.8
2020-Oct-01 11:45 242 16.7
2020-Oct-01 11:30 269 15.6
2020-Oct-01 11:15
2020-Oct-01 11:02
2020-Oct-01 10:46
2020-Oct-01 10:31
2020-Oct-01 10:17
2020-Oct-01 10:01
2020-Oct-01 09:46
2020-Oct-01 09:30
2020-Oct-01 09:16
2020-Oct-01 09:00
2020-Oct-01 08:45
2020-Oct-01 08:30
2020-Oct-01 08:15
2020-Oct-01 08:00
2020-Oct-01 07:46
2020-Oct-01 07:31
2020-Oct-01 07:16
2020-Oct-01 07:01
2020-Oct-01 06:47
2020-Oct-01 06:31
2020-Oct-01 06:16
2020-Oct-01 06:00 211 17.2
2020-Oct-01 05:46 255 1 gusting 6 17.2
2020-Oct-01 05:31 278 0 gusting 4 17.2
2020-Oct-01 05:15 259 17.2
2020-Oct-01 05:01 269 17.2
2020-Oct-01 04:46 294 0 gusting 3 16.7
2020-Oct-01 04:30 269 16.7
2020-Oct-01 04:16 273 16.7
2020-Oct-01 04:00 256 16.7
2020-Oct-01 03:45 256 0 gusting 2 16.7
2020-Oct-01 03:30 266 0 gusting 3 16.7
2020-Oct-01 03:15 264 1 gusting 5 16.7
2020-Oct-01 03:00 264 0 gusting 3 16.7
2020-Oct-01 02:45 276 0 gusting 3 16.7
2020-Oct-01 02:30 269 0 gusting 3 16.7
2020-Oct-01 02:15 276 16.7
2020-Oct-01 02:00 267 0 gusting 3 16.7
2020-Oct-01 01:45 118 16.7
2020-Oct-01 01:30 267 0 gusting 3 16.7
2020-Oct-01 01:15 287 0 gusting 2 16.7
2020-Oct-01 01:01 257 16.7
2020-Oct-01 00:46 270 16.7
2020-Oct-01 00:32 284 0 gusting 3 16.7
2020-Oct-01 00:17 271 17.2
2020-Oct-01 00:01 271 0 gusting 4 17.2
2020-Sep-30 23:47 271 1 gusting 6 17.2
2020-Sep-30 23:31 267 1 gusting 4 17.2
2020-Sep-30 23:16 260 1 gusting 4 17.8
2020-Sep-30 23:01 260 0 gusting 3 17.8
2020-Sep-30 22:46 269 0 gusting 6 17.8
2020-Sep-30 22:31 267 1 gusting 6 18.3
2020-Sep-30 22:15 243 0 gusting 4 18.9
2020-Sep-30 22:00 283 1 gusting 7 19.4
2020-Sep-30 21:45 283 1 gusting 6 20.0
2020-Sep-30 21:30 278 2 gusting 8 20.0
2020-Sep-30 21:15 206 2 gusting 8 20.6
2020-Sep-30 21:00 308 3 gusting 8 20.6
2020-Sep-30 20:45 349 1 gusting 8 21.1
2020-Sep-30 20:31 287 2 gusting 9 21.7
2020-Sep-30 20:16 273 1 gusting 9 21.7
2020-Sep-30 20:01 280 1 gusting 8 22.2
2020-Sep-30 19:46 290 3 gusting 7 22.2
2020-Sep-30 19:30 254 2 gusting 10 22.2
2020-Sep-30 19:15 280 0 gusting 6 22.2
2020-Sep-30 19:00 288 2 gusting 7 22.2
2020-Sep-30 18:46 276 4 gusting 9 21.7
2020-Sep-30 18:30 278 3 gusting 8 22.2
2020-Sep-30 18:15 252 4 gusting 12 21.1
2020-Sep-30 18:01 250 2 gusting 11 21.1
2020-Sep-30 17:45 307 4 gusting 15 21.1
2020-Sep-30 17:30 245 3 gusting 12 21.7
2020-Sep-30 17:15 276 5 gusting 14 21.1
2020-Sep-30 17:00 300 6 gusting 14 20.6
2020-Sep-30 16:45 204 3 gusting 15 21.1
2020-Sep-30 16:30 282 4 gusting 13 21.7
2020-Sep-30 16:15 267 3 gusting 11 21.7
2020-Sep-30 16:00 260 3 gusting 9 21.1
2020-Sep-30 15:46 229 3 gusting 7 20.6
2020-Sep-30 15:32 242 2 gusting 8 20.0
2020-Sep-30 15:16 239 2 gusting 11 20.0
2020-Sep-30 15:02 281 4 gusting 11 19.4
2020-Sep-30 14:46 175 3 gusting 10 20.0
2020-Sep-30 14:31 118 4 gusting 12 20.0
2020-Sep-30 14:16 134 4 gusting 11 20.6
2020-Sep-30 14:01 281 3 gusting 11 20.6
2020-Sep-30 13:46 253 6 gusting 13 20.6
2020-Sep-30 13:31 262 3 gusting 8 21.1
2020-Sep-30 13:16 229 4 gusting 12 21.1
2020-Sep-30 13:01 257 3 gusting 12 21.1
2020-Sep-30 12:46 241 5 gusting 15 21.7
2020-Sep-30 12:31 297 4 gusting 13 21.7
2020-Sep-30 12:16
2020-Sep-30 12:00
2020-Sep-30 11:45
2020-Sep-30 11:31
2020-Sep-30 11:15
2020-Sep-30 11:00
2020-Sep-30 10:45
2020-Sep-30 10:33
2020-Sep-30 10:16
2020-Sep-30 10:01
2020-Sep-30 09:46
2020-Sep-30 09:32
2020-Sep-30 09:15
2020-Sep-30 09:01
2020-Sep-30 08:45
2020-Sep-30 08:31
2020-Sep-30 08:16
2020-Sep-30 08:00
2020-Sep-30 07:45
2020-Sep-30 07:30
2020-Sep-30 07:15
2020-Sep-30 07:02
2020-Sep-30 06:46
2020-Sep-30 06:31
2020-Sep-30 06:16
2020-Sep-30 06:01 312 21.7
2020-Sep-30 05:47 248 21.7
2020-Sep-30 05:31 252 0 gusting 3 21.7
2020-Sep-30 05:15 277 21.7
2020-Sep-30 05:00 295 21.7
2020-Sep-30 04:45 135 21.7
2020-Sep-30 04:31 267 21.7
2020-Sep-30 04:15 154 21.7
2020-Sep-30 04:00 121 21.1
2020-Sep-30 03:45 257 21.1
2020-Sep-30 03:30 259 21.7
2020-Sep-30 03:15 248 21.1
2020-Sep-30 03:00 311 21.1
2020-Sep-30 02:46 242 21.1
2020-Sep-30 02:32 057 21.1
2020-Sep-30 02:16 304 21.1
2020-Sep-30 02:01 283 21.1
2020-Sep-30 01:48 332 21.1
2020-Sep-30 01:31 290 21.1
2020-Sep-30 01:16 188 21.1
2020-Sep-30 01:01 251 21.1
2020-Sep-30 00:46 297 21.1
2020-Sep-30 00:31 079 21.1
2020-Sep-30 00:16 107 20.6
2020-Sep-30 00:01 106 21.1
2020-Sep-29 23:45 285 21.1
2020-Sep-29 23:31 257 21.1
2020-Sep-29 23:17 260 21.1
2020-Sep-29 23:01 259 21.1
2020-Sep-29 22:46 239 21.1
2020-Sep-29 22:31 277 21.7
2020-Sep-29 22:16 023 21.7
2020-Sep-29 22:00 270 0 gusting 4 21.7
2020-Sep-29 21:46 063 22.2
2020-Sep-29 21:30 249 22.2
2020-Sep-29 21:15 248 22.2
2020-Sep-29 21:01 243 0 gusting 3 22.2
2020-Sep-29 20:46 291 2 gusting 5 22.2
2020-Sep-29 20:31 278 1 gusting 5 22.8
2020-Sep-29 20:17 285 22.8
2020-Sep-29 20:01 092 22.8
2020-Sep-29 19:45 062 23.3
2020-Sep-29 19:31 224 23.3
2020-Sep-29 19:15 108 0 gusting 5 23.3
2020-Sep-29 19:01 271 23.9
2020-Sep-29 18:45 280 23.3
2020-Sep-29 18:31 283 23.3
2020-Sep-29 18:15 249 23.3
2020-Sep-29 18:00 259 23.3
2020-Sep-29 17:46 270 1 gusting 5 23.3
2020-Sep-29 17:30 341 22.8
2020-Sep-29 17:15 162 21.7
2020-Sep-29 17:01 304 21.7
2020-Sep-29 16:45 108 21.1
2020-Sep-29 16:30 225 1 gusting 5 21.7
2020-Sep-29 16:15 245 21.7
2020-Sep-29 16:00 109 21.7